Voltar ao catálogo

ATLAS 28E DEB

AtivoPO
NORAD 20575·DEBRIS·🇺🇸 United States

Lançado Apr 11, 1990 de Vandenberg Space Force Base

Loading…

Próximas Passagens (próximas 24 horas)

TLE

AtualizadoSource: Space-Track

Época: Sep 14, 2026, 01:43 UTC

1 20575U 90031G   26257.07191265  .00003321  00000-0  24832-3 0  9996
2 20575  90.3423 302.3589 0026805  61.9187 298.4754 15.02320233408434

Acompanhe ATLAS 28E DEB em tempo real com AllMySat

Download on the App Store